Location: Cicognara
(44.9500°N, 10.4667°E)
Time: 23:02:54
(UTC+00:00)

Cosmos 2278 Rocket - Pass Details

Date: 20 June 2021
Orbit: 840 x 846 km, 71.0° (Epoch: 23 July)

Event Time Altitude Azimuth Distance (km) Brightness Sun altitude
Rises 22:53:35 0° 324° (NW) 3,411 6.4 -21.3°
Reaches altitude 10° 22:56:23 10° 312° (NW) 2,472 5.3 -21.4°
Maximum altitude 23:00:59 26° 258° (WSW) 1,607 3.6 -21.5°
Enters shadow 23:02:28 23° 233° (SW) 1,716 3.5 -21.5°
